TimeEST,TemperatureF,Dew PointF,Humidity,Sea Level PressureIn,VisibilityMPH,Wind Direction,Wind SpeedMPH,Gust SpeedMPH,PrecipitationIn,Events,Conditions,WindDirDegrees,DateUTC
12:53 AM,57.0,51.1,81,30.19,10.0,Calm,Calm,-,N/A,,Overcast,0,2012-11-27 05:53:00
1:53 AM,57.0,52.0,83,30.19,10.0,NNE,3.5,-,N/A,,Overcast,30,2012-11-27 06:53:00
2:53 AM,57.0,53.1,87,30.19,10.0,Calm,Calm,-,N/A,,Overcast,0,2012-11-27 07:53:00
3:53 AM,57.9,53.1,84,30.17,10.0,Calm,Calm,-,0.00,,Overcast,0,2012-11-27 08:53:00
4:53 AM,57.0,53.1,87,30.16,10.0,Calm,Calm,-,N/A,,Overcast,0,2012-11-27 09:53:00
5:53 AM,57.0,53.1,87,30.16,10.0,ESE,4.6,-,N/A,,Overcast,110,2012-11-27 10:53:00
6:53 AM,57.0,54.0,89,30.17,5.0,NE,3.5,-,0.04,Rain,Rain,40,2012-11-27 11:53:00
7:53 AM,57.0,54.0,89,30.18,5.0,ENE,3.5,-,0.06,Rain,Rain,60,2012-11-27 12:53:00
8:53 AM,57.0,55.0,93,30.19,7.0,East,3.5,-,N/A,Rain,Light Rain,80,2012-11-27 13:53:00
9:53 AM,57.0,55.9,96,30.20,5.0,East,3.5,-,0.01,Rain,Rain,100,2012-11-27 14:53:00
10:53 AM,61.0,55.9,83,30.18,10.0,ENE,3.5,-,0.00,,Overcast,60,2012-11-27 15:53:00
11:53 AM,61.0,57.0,87,30.18,10.0,East,4.6,-,0.00,,Overcast,90,2012-11-27 16:53:00
12:53 PM,61.0,57.0,87,30.16,7.0,East,3.5,-,0.00,Rain,Light Rain,90,2012-11-27 17:53:00
1:46 PM,60.8,57.2,88,30.12,2.5,NW,18.4,21.9,0.15,Rain,Heavy Rain,310,2012-11-27 18:46:00
1:53 PM,61.0,59.0,93,30.16,2.5,NW,15.0,-,0.30,Rain,Heavy Rain,320,2012-11-27 18:53:00
1:55 PM,60.8,59.0,94,30.12,2.0,NW,12.7,-,0.01,Rain,Heavy Rain,320,2012-11-27 18:55:00
2:53 PM,62.6,60.8,94,30.11,2.0,North,6.9,-,N/A,Rain,Light Rain,350,2012-11-27 19:53:00
3:00 PM,62.6,60.8,94,30.11,10.0,North,5.8,-,0.00,Rain,Light Rain,360,2012-11-27 20:00:00
3:53 PM,62.1,60.1,93,30.14,9.0,ENE,3.5,-,0.01,Rain,Light Rain,70,2012-11-27 20:53:00
4:08 PM,62.6,60.8,94,30.10,9.0,Calm,Calm,-,0.00,Rain,Light Rain,0,2012-11-27 21:08:00
4:53 PM,62.1,60.1,93,30.13,10.0,Calm,Calm,-,0.00,Rain,Light Rain,0,2012-11-27 21:53:00
5:53 PM,61.0,59.0,93,30.13,10.0,Calm,Calm,-,0.00,,Mostly Cloudy,0,2012-11-27 22:53:00
6:53 PM,61.0,59.0,93,30.19,10.0,NW,6.9,-,N/A,,Mostly Cloudy,320,2012-11-27 23:53:00
7:53 PM,57.0,55.9,96,30.21,7.0,NW,4.6,-,N/A,,Mostly Cloudy,310,2012-11-28 00:53:00
8:00 PM,59.0,57.2,94,30.18,8.0,NW,4.6,-,N/A,,Mostly Cloudy,310,2012-11-28 01:00:00
8:42 PM,60.8,59.0,94,30.19,9.0,NW,5.8,-,N/A,,Mostly Cloudy,320,2012-11-28 01:42:00
8:53 PM,60.1,57.9,93,30.23,9.0,NW,9.2,-,N/A,,Mostly Cloudy,310,2012-11-28 01:53:00
9:31 PM,60.8,59.0,94,30.19,9.0,NNW,4.6,-,N/A,,Overcast,340,2012-11-28 02:31:00
9:41 PM,60.8,59.0,94,30.20,8.0,NNW,3.5,-,N/A,,Overcast,330,2012-11-28 02:41:00
9:50 PM,60.8,57.2,88,30.20,9.0,North,6.9,-,N/A,,Overcast,360,2012-11-28 02:50:00
9:53 PM,60.1,57.9,93,30.23,10.0,North,6.9,-,N/A,,Overcast,350,2012-11-28 02:53:00
10:39 PM,59.0,57.2,94,30.21,10.0,NNW,4.6,-,N/A,,Mostly Cloudy,330,2012-11-28 03:39:00
10:53 PM,59.0,57.0,93,30.25,9.0,NW,4.6,-,N/A,,Overcast,320,2012-11-28 03:53:00
11:53 PM,57.9,57.0,97,30.25,8.0,NW,4.6,-,N/A,,Overcast,320,2012-11-28 04:53:00